EW5759 Weather Reports


Display with metric or nautical units.
time (UTC)temp
F
wind
direction
speed
MPH
gust
MPH
rain 1hr
in
rain 24hr
in
rain mn
in
humidity
%
barometer
mb
20260506001547 74 211 5.0 15.0 0.00 0.00 0.00 37 1008.3
20260506001029 74 159 7.0 15.0 0.00 0.00 0.00 37 1008.1
20260506000531 74 143 7.0 15.0 0.00 0.00 0.00 37 1008.1
20260506000042 74 213 8.0 14.0 0.00 0.00 0.00 37 1008.1
20260505235528 74 165 9.0 14.0 0.00 0.00 0.00 37 1007.9
20260505235029 74 159 6.0 14.0 0.00 0.00 0.00 38 1008.0
20260505234601 75 164 7.0 12.0 0.00 0.00 0.00 38 1007.9
20260505234035 75 186 8.0 12.0 0.00 0.00 0.00 38 1007.9
20260505233531 75 198 8.0 16.0 0.00 0.00 0.00 38 1007.8
20260505233050 75 184 7.0 16.0 0.00 0.00 0.00 38 1007.8
20260505232528 75 184 9.0 16.0 0.00 0.00 0.00 38 1007.9
20260505232029 76 189 7.0 15.0 0.00 0.00 0.00 38 1007.8
20260505231545 76 167 9.0 17.0 0.00 0.00 0.00 38 1007.8
20260505231030 76 176 9.0 17.0 0.00 0.00 0.00 38 1007.7
20260505230530 76 172 11.0 17.0 0.00 0.00 0.00 38 1007.7
20260505230043 76 167 10.0 15.0 0.00 0.00 0.00 39 1007.7
20260505225528 76 189 10.0 15.0 0.00 0.00 0.00 39 1007.7
20260505225030 76 174 9.0 19.0 0.00 0.00 0.00 38 1007.7
20260505224542 76 172 10.0 19.0 0.00 0.00 0.00 39 1007.7
20260505224033 76 185 8.0 14.0 0.00 0.00 0.00 39 1007.7
20260505223530 77 182 8.0 14.0 0.00 0.00 0.00 39 1007.7
20260505223047 77 173 10.0 16.0 0.00 0.00 0.00 38 1007.7
20260505222535 77 200 9.0 16.0 0.00 0.00 0.00 38 1007.7
20260505222032 77 184 10.0 17.0 0.00 0.00 0.00 37 1007.8
20260505221545 78 155 11.0 19.0 0.00 0.00 0.00 35 1007.7
20260505221031 78 186 10.0 23.0 0.00 0.00 0.00 31 1007.7
20260505220530 78 164 10.0 24.0 0.00 0.00 0.00 31 1007.6
20260505220045 78 155 11.0 24.0 0.00 0.00 0.00 31 1007.7
20260505215530 78 188 12.0 23.0 0.00 0.00 0.00 30 1007.7
20260505215030 78 215 10.0 23.0 0.00 0.00 0.00 30 1007.7
20260505214601 79 184 14.0 22.0 0.00 0.00 0.00 30 1007.7
20260505214028 79 202 13.0 22.0 0.00 0.00 0.00 30 1007.6
20260505213530 79 207 13.0 24.0 0.00 0.00 0.00 30 1007.6
20260505213046 80 181 12.0 24.0 0.00 0.00 0.00 30 1007.7
20260505212531 80 202 12.0 26.0 0.00 0.00 0.00 30 1007.6
20260505212029 81 193 12.0 29.0 0.00 0.00 0.00 31 1007.5
20260505211546 80 187 18.0 29.0 0.00 0.00 0.00 29 1007.5
20260505211033 80 215 14.0 26.0 0.00 0.00 0.00 31 1007.5
20260505210527 80 205 16.0 26.0 0.00 0.00 0.00 30 1007.6
20260505210049 80 176 10.0 26.0 0.00 0.00 0.00 33 1007.4
20260505205531 81 204 13.0 26.0 0.00 0.00 0.00 33 1007.6
20260505205030 81 179 14.0 25.0 0.00 0.00 0.00 32 1007.5
20260505204554 81 179 17.0 25.0 0.00 0.00 0.00 31 1007.3
20260505204027 81 202 9.0 22.0 0.00 0.00 0.00 33 1007.7
20260505203530 80 186 16.0 22.0 0.00 0.00 0.00 35 1007.6
20260505203049 80 200 12.0 21.0 0.00 0.00 0.00 34 1007.6
20260505202530 80 174 12.0 22.0 0.00 0.00 0.00 34 1007.6
20260505202027 80 216 14.0 22.0 0.00 0.00 0.00 33 1007.6
20260505201550 80 154 12.0 21.0 0.00 0.00 0.00 34 1007.7
20260505201028 80 229 12.0 19.0 0.00 0.00 0.00 34 1007.7
20260505200531 80 227 10.0 19.0 0.00 0.00 0.00 35 1007.7
20260505200058 80 215 12.0 19.0 0.00 0.00 0.00 37 1007.8
20260505195530 81 215 12.0 19.0 0.00 0.00 0.00 35 1007.7
20260505195029 81 150 11.0 22.0 0.00 0.00 0.00 35 1007.9
20260505194547 80 205 11.0 22.0 0.00 0.00 0.00 35 1007.7
20260505194031 80 223 12.0 22.0 0.00 0.00 0.00 37 1007.9
20260505193530 80 225 10.0 20.0 0.00 0.00 0.00 37 1008.0
20260505193048 79 185 11.0 21.0 0.00 0.00 0.00 40 1008.0
20260505192533 79 197 13.0 25.0 0.00 0.00 0.00 36 1008.2
20260505192030 79 141 13.0 25.0 0.00 0.00 0.00 37 1008.2
20260505191540 79 187 12.0 21.0 0.00 0.00 0.00 39 1008.2
20260505191030 79 163 9.0 19.0 0.00 0.00 0.00 40 1008.3
20260505190528 80 208 11.0 18.0 0.00 0.00 0.00 38 1008.3
20260505190039 79 178 8.0 21.0 0.00 0.00 0.00 38 1008.3
20260505185528 79 243 11.0 22.0 0.00 0.00 0.00 36 1008.4
20260505185030 79 196 11.0 22.0 0.00 0.00 0.00 37 1008.5
20260505184545 79 228 12.0 22.0 0.00 0.00 0.00 38 1008.5
20260505184031 79 176 9.0 18.0 0.00 0.00 0.00 40 1008.6
20260505183531 79 239 12.0 21.0 0.00 0.00 0.00 38 1008.7
20260505183044 79 240 11.0 21.0 0.00 0.00 0.00 38 1008.8
20260505182527 79 213 12.0 18.0 0.00 0.00 0.00 38 1008.8
20260505182028 79 220 11.0 18.0 0.00 0.00 0.00 38 1008.9
20260505181543 79 180 8.0 16.0 0.00 0.00 0.00 40 1008.9
20260505181029 79 216 10.0 15.0 0.00 0.00 0.00 39 1009.0
20260505180529 79 158 8.0 18.0 0.00 0.00 0.00 39 1008.9
20260505175530 78 235 12.0 18.0 0.00 0.00 0.00 38 1009.1
20260505175034 78 212 9.0 15.0 0.00 0.00 0.00 37 1009.2
20260505174559 78 218 6.0 15.0 0.00 0.00 0.00 39 1009.1
20260505174030 78 255 7.0 15.0 0.00 0.00 0.00 38 1009.0
20260505173531 78 203 6.0 14.0 0.00 0.00 0.00 40 1009.2
20260505173047 78 272 9.0 17.0 0.00 0.00 0.00 41 1009.3
20260505172527 78 209 10.0 22.0 0.00 0.00 0.00 39 1009.3
20260505172028 78 160 11.0 22.0 0.00 0.00 0.00 38 1009.3
20260505171543 78 195 9.0 19.0 0.00 0.00 0.00 39 1009.1
20260505171031 78 233 11.0 19.0 0.00 0.00 0.00 38 1009.3
20260505170530 78 238 8.0 21.0 0.00 0.00 0.00 40 1009.5
20260505170049 78 198 10.0 21.0 0.00 0.00 0.00 38 1009.6
20260505165529 77 217 10.0 21.0 0.00 0.00 0.00 39 1009.7
20260505165029 77 236 10.0 17.0 0.00 0.00 0.00 39 1009.8
20260505164549 78 212 6.0 21.0 0.00 0.00 0.00 42 1009.9
20260505164030 77 145 10.0 21.0 0.00 0.00 0.00 38 1010.1
20260505163531 77 221 9.0 18.0 0.00 0.00 0.00 38 1009.9
20260505163047 77 257 11.0 18.0 0.00 0.00 0.00 40 1010.1
20260505162530 77 190 9.0 19.0 0.00 0.00 0.00 40 1010.2
20260505162029 77 212 10.0 19.0 0.00 0.00 0.00 40 1010.3
20260505161543 77 190 9.0 17.0 0.00 0.00 0.00 41 1010.3
20260505161028 77 214 8.0 19.0 0.00 0.00 0.00 42 1010.4
20260505160530 77 203 8.0 19.0 0.00 0.00 0.00 45 1010.6
20260505153044 76 252 9.0 19.0 0.00 0.00 0.00 45 1010.7
20260505152535 76 206 6.0 13.0 0.00 0.00 0.00 47 1010.6
20260505152029 75 262 7.0 13.0 0.00 0.00 0.00 47 1010.7
20260505151544 75 217 7.0 16.0 0.00 0.00 0.00 48 1010.7
20260505151033 75 245 7.0 16.0 0.00 0.00 0.00 48 1010.7
20260505150534 74 154 7.0 15.0 0.00 0.00 0.00 48 1010.6
20260505140529 72 251 8.0 17.0 0.00 0.00 0.00 49 1010.8
20260505125031 66 161 9.0 14.0 0.00 0.00 0.00 60 1011.2
20260505124546 65 165 8.0 14.0 0.00 0.00 0.00 62 1011.2
20260505124029 65 184 8.0 14.0 0.00 0.00 0.00 61 1011.3
20260505123530 65 165 8.0 13.0 0.00 0.00 0.00 63 1011.3
20260505123101 64 179 7.0 13.0 0.00 0.00 0.00 64 1011.4
20260505122536 64 154 8.0 13.0 0.00 0.00 0.00 65 1011.4
20260505122035 64 202 8.0 13.0 0.00 0.00 0.00 65 1011.4
20260505121540 63 160 7.0 12.0 0.00 0.00 0.00 66 1011.5
20260505121029 63 177 7.0 14.0 0.00 0.00 0.00 66 1011.6
20260505120530 62 214 8.0 14.0 0.00 0.00 0.00 66 1011.5
20260505120046 62 185 8.0 14.0 0.00 0.00 0.00 66 1011.5
20260505115531 62 157 7.0 11.0 0.00 0.00 0.00 68 1011.4
20260505115035 61 164 7.0 12.0 0.00 0.00 0.00 68 1011.4
20260505114544 61 167 8.0 12.0 0.00 0.00 0.00 67 1011.4
20260505114032 61 160 7.0 9.0 0.00 0.00 0.00 68 1011.4
20260505113530 61 159 5.0 8.0 0.00 0.00 0.00 70 1011.3
20260505113041 60 159 5.0 8.0 0.00 0.00 0.00 71 1011.3
20260505112534 60 175 5.0 8.0 0.00 0.00 0.00 72 1011.1
20260505112032 59 162 5.0 8.0 0.00 0.00 0.00 72 1011.2
20260505111547 59 153 4.0 6.0 0.00 0.00 0.00 74 1011.1
20260505111032 58 150 4.0 6.0 0.00 0.00 0.00 73 1011.0
20260505110530 58 153 4.0 6.0 0.00 0.00 0.00 74 1011.1
20260505102032 57 149 5.0 6.0 0.00 0.00 0.00 76 1010.5
20260505101545 57 146 5.0 7.0 0.00 0.00 0.00 75 1010.7
20260505101029 58 143 5.0 7.0 0.00 0.00 0.00 74 1010.6
20260505100529 58 150 5.0 7.0 0.00 0.00 0.00 74 1010.6
20260505100050 58 169 2.0 5.0 0.00 0.00 0.00 74 1010.7
20260505095532 57 179 2.0 8.0 0.00 0.00 0.00 74 1010.6
20260505095033 57 158 3.0 8.0 0.00 0.00 0.00 75 1010.6
20260505094545 57 155 4.0 7.0 0.00 0.00 0.00 76 1010.3
20260505094031 57 141 4.0 7.0 0.00 0.00 0.00 75 1010.4
20260505093529 57 153 5.0 7.0 0.00 0.00 0.00 75 1010.3
20260505093043 57 149 5.0 7.0 0.00 0.00 0.00 75 1010.2
20260505092531 57 146 4.0 6.0 0.00 0.00 0.00 74 1010.3
20260505092028 58 143 4.0 8.0 0.00 0.00 0.00 74 1010.2
20260505091601 58 153 4.0 8.0 0.00 0.00 0.00 73 1010.2
20260505091029 58 161 5.0 8.0 0.00 0.00 0.00 72 1010.3
20260505090530 58 158 4.0 8.0 0.00 0.00 0.00 72 1010.2
20260505090047 59 160 5.0 8.0 0.00 0.00 0.00 72 1010.2
20260505085532 59 143 5.0 8.0 0.00 0.00 0.00 71 1010.2
20260505085030 59 163 5.0 8.0 0.00 0.00 0.00 71 1010.2
20260505084543 59 174 5.0 8.0 0.00 0.00 0.00 71 1010.2
20260505084029 59 163 4.0 7.0 0.00 0.00 0.00 71 1010.2
20260505083529 59 167 5.0 7.0 0.00 0.00 0.00 71 1010.2
20260505083041 59 153 5.0 7.0 0.00 0.00 0.00 71 1010.1
20260505082529 59 162 4.0 8.0 0.00 0.00 0.00 71 1010.1
20260505082029 59 194 5.0 10.0 0.00 0.00 0.00 71 1010.1
20260505081554 59 155 5.0 11.0 0.00 0.00 0.00 71 1010.1
20260505081029 59 158 4.0 11.0 0.00 0.00 0.00 71 1010.1
20260505080529 59 167 5.0 9.0 0.00 0.00 0.00 71 1010.0
20260505080056 59 194 6.0 10.0 0.00 0.00 0.00 71 1010.0
20260505075529 59 161 5.0 10.0 0.00 0.00 0.00 71 1010.0
20260505075029 59 152 6.0 10.0 0.00 0.00 0.00 71 1009.8
20260505074541 59 170 6.0 9.0 0.00 0.00 0.00 71 1009.9
20260505074028 58 179 7.0 9.0 0.00 0.00 0.00 72 1009.9
20260505073529 58 166 4.0 8.0 0.00 0.00 0.00 74 1009.8
20260505073046 57 156 4.0 7.0 0.00 0.00 0.00 74 1009.7
20260505072533 57 146 3.0 6.0 0.00 0.00 0.00 74 1009.8
20260505072030 57 134 4.0 6.0 0.00 0.00 0.00 75 1009.9
20260505071551 57 140 4.0 6.0 0.00 0.00 0.00 74 1009.7
20260505071029 57 141 4.0 6.0 0.00 0.00 0.00 74 1009.8
20260505070532 58 129 4.0 6.0 0.00 0.00 0.00 74 1009.8
20260505070050 58 129 4.0 6.0 0.00 0.00 0.00 74 1009.6
20260505065529 58 130 4.0 6.0 0.00 0.00 0.00 75 1009.7
20260505065029 58 142 3.0 6.0 0.00 0.00 0.00 75 1009.8
20260505064546 58 131 4.0 6.0 0.00 0.00 0.00 75 1009.8
20260505064029 58 141 3.0 5.0 0.00 0.00 0.00 74 1009.9
20260505063529 58 134 3.0 6.0 0.00 0.00 0.00 74 1009.9
20260505063103 58 134 4.0 6.0 0.00 0.00 0.00 74 1009.8
20260505062531 58 133 3.0 5.0 0.00 0.00 0.00 74 1010.0
20260505062029 58 125 3.0 5.0 0.00 0.00 0.00 73 1010.0
20260505061606 59 127 3.0 5.0 0.00 0.00 0.00 73 1010.0
20260505061031 58 124 3.0 5.0 0.00 0.00 0.00 73 1010.0
20260505060533 58 127 3.0 5.0 0.00 0.00 0.00 74 1010.1
20260505060057 58 134 4.0 5.0 0.00 0.00 0.00 74 1010.1
20260505055530 59 138 4.0 6.0 0.00 0.00 0.00 73 1010.1
20260505055030 59 134 4.0 6.0 0.00 0.00 0.00 73 1010.1
20260505054547 59 141 4.0 6.0 0.00 0.00 0.00 73 1010.1
20260505054032 59 141 5.0 6.0 0.00 0.00 0.00 72 1010.2
20260505053529 59 134 4.0 6.0 0.00 0.00 0.00 71 1010.1
20260505053046 60 130 3.0 8.0 0.00 0.00 0.00 70 1010.0
20260505052533 60 146 4.0 9.0 0.00 0.00 0.00 69 1010.1
20260505052032 61 168 5.0 9.0 0.00 0.00 0.00 69 1010.3
20260505051607 61 154 5.0 12.0 0.00 0.00 0.00 69 1010.1
20260505051033 61 162 5.0 13.0 0.00 0.00 0.00 69 1010.1
20260505050532 61 146 8.0 13.0 0.00 0.00 0.00 69 1010.1
20260505041548 62 163 5.0 9.0 0.00 0.00 0.00 66 1009.8
20260505041031 62 164 6.0 9.0 0.00 0.00 0.00 66 1009.8
20260505040536 62 159 5.0 8.0 0.00 0.00 0.00 66 1009.9
20260505040042 62 148 5.0 9.0 0.00 0.00 0.00 65 1009.8
20260505035530 63 139 5.0 9.0 0.00 0.00 0.00 64 1009.8
20260505035034 63 155 5.0 9.0 0.00 0.00 0.00 63 1009.8
20260505034544 63 183 5.0 8.0 0.00 0.00 0.00 63 1009.7
20260505034029 64 165 4.0 8.0 0.00 0.00 0.00 62 1009.8
20260505033533 64 159 5.0 8.0 0.00 0.00 0.00 62 1009.8
20260505033045 64 197 4.0 8.0 0.00 0.00 0.00 62 1009.9
20260505032532 64 178 5.0 9.0 0.00 0.00 0.00 61 1009.9
20260505032029 64 176 5.0 12.0 0.00 0.00 0.00 62 1009.9
20260505031553 64 164 6.0 12.0 0.00 0.00 0.00 61 1009.8
20260505031031 64 172 7.0 12.0 0.00 0.00 0.00 61 1009.9
20260505030533 64 172 6.0 9.0 0.00 0.00 0.00 62 1009.8
20260505030043 64 158 6.0 9.0 0.00 0.00 0.00 62 1009.9
20260505025530 64 143 6.0 10.0 0.00 0.00 0.00 61 1009.8
20260505025031 64 160 6.0 10.0 0.00 0.00 0.00 61 1009.8
20260505024552 64 176 7.0 10.0 0.00 0.00 0.00 61 1009.7
20260505024031 64 149 6.0 10.0 0.00 0.00 0.00 61 1009.6
20260505023532 64 160 6.0 10.0 0.00 0.00 0.00 61 1009.7
20260505023043 64 184 5.0 11.0 0.00 0.00 0.00 60 1009.7
20260505022533 64 183 6.0 11.0 0.00 0.00 0.00 61 1009.7
20260505022032 64 178 5.0 9.0 0.00 0.00 0.00 61 1009.4
20260505021550 63 164 6.0 9.0 0.00 0.00 0.00 61 1009.5
20260505021031 63 160 5.0 8.0 0.00 0.00 0.00 62 1009.5
20260505020531 63 155 4.0 7.0 0.00 0.00 0.00 62 1009.5
20260505020043 63 169 5.0 6.0 0.00 0.00 0.00 62 1009.5
20260505015530 64 146 4.0 8.0 0.00 0.00 0.00 61 1009.6
20260505015031 65 158 5.0 8.0 0.00 0.00 0.00 59 1009.5
20260505014542 65 155 4.0 8.0 0.00 0.00 0.00 58 1009.7
20260505014031 65 172 4.0 9.0 0.00 0.00 0.00 59 1009.5
20260505013529 65 196 5.0 9.0 0.00 0.00 0.00 60 1009.6
20260505013041 65 147 4.0 9.0 0.00 0.00 0.00 61 1009.6
20260505012532 65 156 3.0 7.0 0.00 0.00 0.00 60 1009.4
20260505012031 66 155 3.0 11.0 0.00 0.00 0.00 58 1009.4
20260505011544 66 186 5.0 12.0 0.00 0.00 0.00 58 1009.2
20260505011032 66 196 7.0 12.0 0.00 0.00 0.00 56 1009.3
20260505010531 66 195 8.0 20.0 0.00 0.00 0.00 57 1009.2
20260505010058 67 224 10.0 20.0 0.00 0.00 0.00 57 1009.0
20260505005532 68 192 9.0 17.0 0.00 0.00 0.00 53 1009.0
20260505005032 68 217 7.0 12.0 0.00 0.00 0.00 49 1009.1
20260505004544 68 158 8.0 11.0 0.00 0.00 0.00 48 1009.0
20260505004031 68 191 7.0 12.0 0.00 0.00 0.00 48 1008.8
20260505003531 68 163 8.0 12.0 0.00 0.00 0.00 49 1008.7
20260505003042 67 167 8.0 12.0 0.00 0.00 0.00 49 1008.6
20260505002529 67 154 7.0 11.0 0.00 0.00 0.00 50 1008.5
20260505002030 67 150 7.0 11.0 0.00 0.00 0.00 49 1008.5